Weather History for Wink, TX

Change the Weather History Date:

Wednesday, July 3, 2013

  Actual Average Record
Temperature  
Mean Temperature 78 °F -  
Max Temperature 91 °F 97 °F 114 °F (2005)
Min Temperature 64 °F 70 °F 61 °F (1942)
Cooling Degree Days 12    
Growing Degree Days 28 (Base 50)    
Moisture  
Dew Point 48 °F    
Average Humidity 40    
Maximum Humidity 76    
Minimum Humidity 18    
Precipitation  
Precipitation 0.00 in - - ()
Sea Level Pressure  
Sea Level Pressure 29.91 in    
Wind  
Wind Speed 8 mph (SE)    
Max Wind Speed 17 mph    
Max Gust Speed 24 mph    
Visibility 10 miles    
Events      
Averages and records for this station are not official NWS values.
T = Trace of Precipitation, MM = Missing Value Source: NWS Daily Summary

Daily Weather History Graph

Daily Weather History Graph

Search for Another Location

Airport:

Trip Planner

Search our weather history database for the weather conditions in past years. The results will help you decide how hot, cold, wet, or windy it might be!

Date:

Astronomy

Jul. 03, 2013 Rise Set
Actual Time 6:51 AM CDT 9:02 PM CDT
Civil Twilight 6:23 AM CDT 9:30 PM CDT
Nautical Twilight 5:49 AM CDT 10:04 PM CDT
Astronomical Twilight 5:12 AM CDT 10:41 PM CDT
Moon 3:24 AM CDT (7/3) 5:20 PM CDT (7/3)
Length of Visible Light 15h 06m
Length of Day
14h 10m
Waning Crescent, 18% of the Moon is Illuminated
Jul 3
Waning Crescent
Jul 8
New
Jul 15
First Quarter
Jul 22
Full
Jul 29
Last Quarter

Hourly Weather History & Observations

Time (CDT) Temp. Dew Point Humidity Pressure Visibility Wind Dir Wind Speed Gust Speed Precip Events Conditions
12:53 AM 71.1 °F 61.0 °F 70% 30.01 in 10.0 mi SE 4.6 mph - N/A   Clear
1:53 AM 69.1 °F 61.0 °F 75% 30.01 in 10.0 mi ESE 3.5 mph - N/A   Clear
2:53 AM 68.0 °F 60.1 °F 76% 30.00 in 10.0 mi ESE 4.6 mph - N/A   Clear
3:53 AM 68.0 °F 55.9 °F 65% 29.97 in 10.0 mi ESE 6.9 mph - N/A   Partly Cloudy
4:53 AM 66.9 °F 54.0 °F 63% 29.96 in 10.0 mi ESE 6.9 mph - N/A   Scattered Clouds
5:53 AM 66.0 °F 52.0 °F 60% 29.95 in 10.0 mi SE 4.6 mph - N/A   Clear
6:53 AM 64.9 °F 51.1 °F 61% 29.96 in 10.0 mi SE 6.9 mph - N/A   Clear
7:53 AM 66.9 °F 50.0 °F 54% 29.97 in 10.0 mi ESE 8.1 mph - N/A   Clear
8:53 AM 71.1 °F 48.9 °F 45% 29.99 in 10.0 mi SE 12.7 mph - N/A   Clear
9:53 AM 75.0 °F 48.0 °F 38% 29.99 in 10.0 mi SSE 11.5 mph - N/A   Clear
10:53 AM 78.1 °F 48.9 °F 36% 29.97 in 10.0 mi SSE 17.3 mph - N/A   Clear
11:53 AM 81.0 °F 48.9 °F 33% 29.96 in 10.0 mi SSE 16.1 mph - N/A   Clear
12:53 PM 84.0 °F 48.0 °F 28% 29.94 in 10.0 mi SSE 13.8 mph - N/A   Clear
1:53 PM 88.0 °F 45.0 °F 22% 29.91 in 10.0 mi SSE 15.0 mph 24.2 mph N/A   Clear
2:53 PM 89.1 °F 44.1 °F 21% 29.88 in 10.0 mi ESE 8.1 mph 18.4 mph N/A   Clear
3:53 PM 90.0 °F 44.1 °F 20% 29.86 in 10.0 mi SE 12.7 mph 16.1 mph N/A   Clear
4:53 PM 91.0 °F 43.0 °F 19% 29.84 in 10.0 mi SSE 11.5 mph - N/A   Clear
5:53 PM 91.0 °F 42.1 °F 18% 29.80 in 10.0 mi South 15.0 mph 21.9 mph N/A   Clear
6:53 PM 89.1 °F 42.1 °F 19% 29.79 in 10.0 mi ESE 13.8 mph - N/A   Clear
7:53 PM 87.1 °F 42.1 °F 21% 29.80 in 10.0 mi SE 15.0 mph - N/A   Clear
8:53 PM 84.0 °F 43.0 °F 24% 29.80 in 10.0 mi SE 8.1 mph - N/A   Clear
9:53 PM 81.0 °F 44.1 °F 27% 29.81 in 10.0 mi SE 9.2 mph - N/A   Clear
10:53 PM 79.0 °F 43.0 °F 28% 29.82 in 10.0 mi SE 10.4 mph - N/A   Clear
11:53 PM 78.1 °F 42.1 °F 28% 29.83 in 10.0 mi SE 9.2 mph - N/A   Clear